World > North America > United States > Ohio

Moscow, Ohio Regional Weather

Lat: 38.86N, Lon: 84.23W
Wx Zone: OHZ078Web Search
Moscow Weather Warning NWS WEATHER ALERT FOR THE MOSCOW, OH AREA - HARD FROST ADVISORY Issued: 530 AM EDT Wed May 12 2021 Moscow Weather Warning  

If you are on your PC, you can easily pass this page to your phone by scanning the QR Code near the bottom with your camera.

Feedback


°F Click to change Moscow hourly weather to Imperial units.Click to change Moscow hourly weather to Metric units. °C
Moscow Weather Map
UTC Time: 5/12/2021, 12:18
Your Time:

Moscow, OH Regional Weather

Expires:202105121300;;997734
ASUS41 KCLE 121212
RWRCLE
OHIO REGIONAL WEATHER ROUNDUP
NATIONAL WEATHER SERVICE WILMINGTON, OH
800 AM EDT WED MAY 12 2021

NOTE: "FAIR" INDICATES FEW OR NO CLOUDS BELOW 12,000 FEET WITH NO
SIGNIFICANT WEATHER AND/OR OBSTRUCTIONS TO VISIBILITY.


OHZ042-051>053-060>062-070>072-077>081-121300-
  SOUTHWEST OHIO
  
CITY           SKY/WX    TMP DP  RH WIND       PRES   REMARKS
CINC-COVINGTON FAIR      45  33  63 NE8       30.38R                  
CINC-LUNKEN    FAIR      44  39  82 CALM      30.40R                  
HAMILTON       FAIR      44  35  70 NE6       30.41R                  
DAYTON         FAIR      43  33  68 N7        30.41R                  
WRIGHT-PAT AFB FAIR      41  35  79 N5        30.40R                  
DAYTON GENERAL FAIR      44  34  67 NE8       30.38R                  
WILMINGTON     FAIR      43  34  70 N6        30.38R                  
$$


SKY/WX - Weather  TMP - Temperature  DP - Dew Point  RH - Relative Humidity
WIND - Wind Direction/Speed PRES - Barometric Pressure VSB - Visibility
WCI - Wind Chill Index E13G22 Wind - East Wind 13 mph/Gusts of 22 mph